Time,TemperatureF,DewpointF,PressureIn,WindDirection,WindDirectionDegrees,WindSpeedMPH,WindSpeedGustMPH,Humidity,HourlyPrecipIn,Conditions,Clouds,dailyrainin,SoftwareType,DateUTC
2013-06-27 00:00:00,82.2,60.0,28.32,South,174,0.0,0.0,47,0.00,,---,0.00,VWS V14.01,2013-06-27 05:00:00,
2013-06-27 00:05:00,82.0,59.8,28.32,South,174,0.0,0.0,47,0.00,,---,0.00,VWS V14.01,2013-06-27 05:05:00,
2013-06-27 00:10:00,81.9,60.3,28.32,South,174,0.0,0.0,48,0.00,,---,0.00,VWS V14.01,2013-06-27 05:10:00,
2013-06-27 00:15:00,81.9,60.3,28.32,South,174,0.0,0.0,48,0.00,,---,0.00,VWS V14.01,2013-06-27 05:15:00,
2013-06-27 00:21:00,81.5,60.5,28.32,South,175,0.0,0.0,49,0.00,,---,0.00,VWS V14.01,2013-06-27 05:21:00,
2013-06-27 00:26:00,81.3,60.9,28.32,South,175,0.0,0.0,50,0.00,,---,0.00,VWS V14.01,2013-06-27 05:26:00,
2013-06-27 00:31:00,81.3,60.9,28.32,South,175,0.0,0.0,50,0.00,,---,0.00,VWS V14.01,2013-06-27 05:31:00,
2013-06-27 00:36:00,81.1,61.3,28.32,South,175,0.0,0.0,51,0.00,,---,0.00,VWS V14.01,2013-06-27 05:36:00,
2013-06-27 00:41:00,81.0,61.7,28.32,South,175,0.0,0.0,52,0.00,,---,0.00,VWS V14.01,2013-06-27 05:41:00,
2013-06-27 00:46:00,80.8,61.5,28.32,South,173,0.0,0.0,52,0.00,,---,0.00,VWS V14.01,2013-06-27 05:46:00,
2013-06-27 00:51:00,80.6,61.9,28.32,South,173,0.0,0.0,53,0.00,,---,0.00,VWS V14.01,2013-06-27 05:51:00,
2013-06-27 00:56:00,80.4,62.3,28.32,South,173,0.0,0.0,54,0.00,,---,0.00,VWS V14.01,2013-06-27 05:56:00,
2013-06-27 01:01:00,80.4,62.8,28.32,South,173,0.0,0.0,55,0.00,,---,0.00,VWS V14.01,2013-06-27 06:01:00,
2013-06-27 01:07:00,80.2,63.1,28.32,South,173,0.0,0.0,56,0.00,,---,0.00,VWS V14.01,2013-06-27 06:07:00,
2013-06-27 01:12:00,80.1,63.0,28.32,South,173,0.0,0.0,56,0.00,,---,0.00,VWS V14.01,2013-06-27 06:12:00,
2013-06-27 01:17:00,80.1,63.5,28.32,South,173,0.0,0.0,57,0.00,,---,0.00,VWS V14.01,2013-06-27 06:17:00,
2013-06-27 01:22:00,79.9,63.8,28.32,South,173,0.0,0.0,58,0.00,,---,0.00,VWS V14.01,2013-06-27 06:22:00,
2013-06-27 01:27:00,79.9,63.8,28.32,South,173,0.0,0.0,58,0.00,,---,0.00,VWS V14.01,2013-06-27 06:27:00,
2013-06-27 01:32:00,79.7,64.1,28.32,South,173,0.0,0.0,59,0.00,,---,0.00,VWS V14.01,2013-06-27 06:32:00,
2013-06-27 01:37:00,79.5,64.0,28.32,South,173,0.0,0.0,59,0.00,,---,0.00,VWS V14.01,2013-06-27 06:37:00,
2013-06-27 01:42:00,79.3,64.3,28.32,South,173,0.0,0.0,60,0.00,,---,0.00,VWS V14.01,2013-06-27 06:42:00,
2013-06-27 01:48:00,79.2,64.6,28.32,South,173,0.0,0.0,61,0.00,,---,0.00,VWS V14.01,2013-06-27 06:48:00,
2013-06-27 01:53:00,79.0,64.4,28.32,South,173,0.0,0.0,61,0.00,,---,0.00,VWS V14.01,2013-06-27 06:53:00,
2013-06-27 01:58:00,78.8,64.7,28.32,SE,124,0.0,0.0,62,0.00,,---,0.00,VWS V14.01,2013-06-27 06:58:00,
2013-06-27 02:03:00,78.6,65.0,28.32,SE,136,0.0,0.0,63,0.00,,---,0.00,VWS V14.01,2013-06-27 07:03:00,
2013-06-27 02:08:00,78.6,65.9,28.32,SSW,196,0.0,0.0,65,0.00,,---,0.00,VWS V14.01,2013-06-27 07:08:00,
2013-06-27 02:13:00,78.6,66.3,28.32,SSW,198,0.0,0.0,66,0.00,,---,0.00,VWS V14.01,2013-06-27 07:13:00,
2013-06-27 02:18:00,78.8,66.5,28.32,South,186,0.0,3.6,66,0.00,,---,0.00,VWS V14.01,2013-06-27 07:18:00,
2013-06-27 02:23:00,78.8,66.9,28.32,South,173,0.0,3.6,67,0.00,,---,0.00,VWS V14.01,2013-06-27 07:23:00,
2013-06-27 02:28:00,79.0,67.5,28.32,South,186,0.0,3.6,68,0.00,,---,0.00,VWS V14.01,2013-06-27 07:28:00,
2013-06-27 02:34:00,79.3,68.3,28.32,South,173,0.0,3.6,69,0.00,,---,0.00,VWS V14.01,2013-06-27 07:34:00,
2013-06-27 02:39:00,79.5,68.5,28.32,SE,131,0.0,3.6,69,0.00,,---,0.00,VWS V14.01,2013-06-27 07:39:00,
2013-06-27 02:44:00,79.7,69.1,28.32,SW,227,0.0,3.6,70,0.00,,---,0.00,VWS V14.01,2013-06-27 07:44:00,
2013-06-27 02:49:00,79.9,69.2,28.32,SE,124,0.0,3.6,70,0.00,,---,0.00,VWS V14.01,2013-06-27 07:49:00,
2013-06-27 02:54:00,79.9,69.2,28.32,South,191,0.0,3.6,70,0.00,,---,0.00,VWS V14.01,2013-06-27 07:54:00,
2013-06-27 02:59:00,80.1,69.4,28.32,South,183,0.0,3.6,70,0.00,,---,0.00,VWS V14.01,2013-06-27 07:59:00,
2013-06-27 03:04:00,80.1,69.4,28.32,SSE,167,2.7,3.6,70,0.00,,---,0.00,VWS V14.01,2013-06-27 08:04:00,
2013-06-27 03:09:00,79.9,69.2,28.32,SSE,168,0.0,3.6,70,0.00,,---,0.00,VWS V14.01,2013-06-27 08:09:00,
2013-06-27 03:14:00,79.7,69.1,28.32,SSE,168,0.0,3.6,70,0.00,,---,0.00,VWS V14.01,2013-06-27 08:14:00,
2013-06-27 03:19:00,79.7,69.1,28.32,ESE,122,0.0,3.6,70,0.00,,---,0.00,VWS V14.01,2013-06-27 08:19:00,
2013-06-27 03:25:00,79.5,68.9,28.32,South,171,0.0,3.6,70,0.00,,---,0.00,VWS V14.01,2013-06-27 08:25:00,
2013-06-27 03:30:00,79.3,68.7,28.32,SSE,168,0.0,3.6,70,0.00,,---,0.00,VWS V14.01,2013-06-27 08:30:00,
2013-06-27 03:35:00,79.2,68.9,28.32,SSE,158,3.1,3.6,71,0.00,,---,0.00,VWS V14.01,2013-06-27 08:35:00,
2013-06-27 03:40:00,79.2,68.9,28.32,SSE,152,0.0,3.6,71,0.00,,---,0.00,VWS V14.01,2013-06-27 08:40:00,
2013-06-27 03:45:00,79.0,68.8,28.32,SSE,152,0.0,3.6,71,0.00,,---,0.00,VWS V14.01,2013-06-27 08:45:00,
2013-06-27 03:50:00,78.8,69.0,28.32,SE,141,0.0,3.6,72,0.00,,---,0.00,VWS V14.01,2013-06-27 08:50:00,
2013-06-27 03:55:00,78.6,69.2,28.32,South,185,3.1,3.6,73,0.00,,---,0.00,VWS V14.01,2013-06-27 08:55:00,
2013-06-27 04:00:00,78.4,69.1,28.32,SE,133,0.0,3.1,73,0.00,,---,0.00,VWS V14.01,2013-06-27 09:00:00,
2013-06-27 04:06:00,78.4,69.1,28.32,SE,139,0.0,3.1,73,0.00,,---,0.00,VWS V14.01,2013-06-27 09:06:00,
2013-06-27 04:11:00,78.3,69.3,28.32,SSW,195,0.0,3.1,74,0.00,,---,0.00,VWS V14.01,2013-06-27 09:11:00,
2013-06-27 04:12:00,78.3,69.3,28.32,SSW,195,0.0,3.1,74,0.00,,---,0.00,VWS V14.01,2013-06-27 09:12:00,
2013-06-27 04:17:00,77.9,68.9,28.32,SE,128,0.0,3.1,74,0.00,,---,0.00,VWS V14.01,2013-06-27 09:17:00,
2013-06-27 04:22:00,77.7,68.8,28.32,South,169,0.0,4.0,74,0.00,,---,0.00,VWS V14.01,2013-06-27 09:22:00,
2013-06-27 04:27:00,77.7,68.8,28.32,SW,217,0.0,4.0,74,0.00,,---,0.00,VWS V14.01,2013-06-27 09:27:00,
2013-06-27 04:32:00,77.5,69.0,28.32,SW,217,0.0,4.0,75,0.00,,---,0.00,VWS V14.01,2013-06-27 09:32:00,
2013-06-27 04:37:00,77.4,68.8,28.32,SSW,192,0.0,4.0,75,0.00,,---,0.00,VWS V14.01,2013-06-27 09:37:00,
2013-06-27 04:42:00,77.2,68.7,28.32,SSW,192,0.0,4.0,75,0.00,,---,0.00,VWS V14.01,2013-06-27 09:42:00,
2013-06-27 04:47:00,77.0,68.9,28.32,SSW,192,0.0,4.0,76,0.00,,---,0.00,VWS V14.01,2013-06-27 09:47:00,
2013-06-27 04:53:00,76.8,68.7,28.32,SSW,192,0.0,4.0,76,0.00,,---,0.00,VWS V14.01,2013-06-27 09:53:00,
2013-06-27 04:58:00,76.6,68.9,28.32,South,172,0.0,4.0,77,0.00,,---,0.00,VWS V14.01,2013-06-27 09:58:00,
2013-06-27 05:03:00,76.5,68.7,28.32,South,172,0.0,0.0,77,0.00,,---,0.00,VWS V14.01,2013-06-27 10:03:00,
2013-06-27 05:08:00,76.3,68.6,28.32,South,172,0.0,0.0,77,0.00,,---,0.00,VWS V14.01,2013-06-27 10:08:00,
2013-06-27 05:13:00,76.1,68.4,28.32,South,172,0.0,0.0,77,0.00,,---,0.00,VWS V14.01,2013-06-27 10:13:00,
2013-06-27 05:18:00,75.9,68.6,28.32,South,172,0.0,0.0,78,0.00,,---,0.00,VWS V14.01,2013-06-27 10:18:00,
2013-06-27 05:23:00,75.7,68.4,28.32,South,172,0.0,0.0,78,0.00,,---,0.00,VWS V14.01,2013-06-27 10:23:00,
2013-06-27 05:28:00,75.6,68.2,28.32,South,172,0.0,0.0,78,0.00,,---,0.00,VWS V14.01,2013-06-27 10:28:00,
2013-06-27 05:34:00,75.4,68.1,28.32,South,172,0.0,0.0,78,0.00,,---,0.00,VWS V14.01,2013-06-27 10:34:00,
2013-06-27 05:39:00,75.2,68.2,28.32,South,172,0.0,0.0,79,0.00,,---,0.00,VWS V14.01,2013-06-27 10:39:00,
2013-06-27 05:44:00,75.0,68.1,28.32,South,172,0.0,0.0,79,0.00,,---,0.00,VWS V14.01,2013-06-27 10:44:00,
2013-06-27 05:49:00,74.8,68.3,28.32,South,172,0.0,0.0,80,0.00,,---,0.00,VWS V14.01,2013-06-27 10:49:00,
2013-06-27 05:54:00,74.7,68.1,28.32,South,172,0.0,0.0,80,0.00,,---,0.00,VWS V14.01,2013-06-27 10:54:00,
2013-06-27 05:59:00,74.5,67.9,28.32,South,172,0.0,0.0,80,0.00,,---,0.00,VWS V14.01,2013-06-27 10:59:00,
2013-06-27 06:04:00,74.5,67.9,28.32,South,172,0.0,0.0,80,0.00,,---,0.00,VWS V14.01,2013-06-27 11:04:00,
2013-06-27 06:09:00,74.3,68.1,28.32,South,172,0.0,0.0,81,0.00,,---,0.00,VWS V14.01,2013-06-27 11:09:00,
2013-06-27 06:15:00,74.1,67.9,28.32,South,172,0.0,0.0,81,0.00,,---,0.00,VWS V14.01,2013-06-27 11:15:00,
2013-06-27 06:20:00,74.1,68.3,28.32,South,172,0.0,0.0,82,0.00,,---,0.00,VWS V14.01,2013-06-27 11:20:00,
2013-06-27 06:25:00,74.1,68.3,28.32,South,172,0.0,0.0,82,0.00,,---,0.00,VWS V14.01,2013-06-27 11:25:00,
2013-06-27 06:30:00,74.1,68.3,28.32,South,172,0.0,0.0,82,0.00,,---,0.00,VWS V14.01,2013-06-27 11:30:00,
2013-06-27 06:35:00,74.3,68.8,28.32,South,172,0.0,0.0,83,0.00,,---,0.00,VWS V14.01,2013-06-27 11:35:00,
2013-06-27 06:40:00,74.3,68.8,28.35,South,172,0.0,0.0,83,0.00,,---,0.00,VWS V14.01,2013-06-27 11:40:00,
2013-06-27 06:45:00,74.5,69.3,28.35,South,172,0.0,0.0,84,0.00,,---,0.00,VWS V14.01,2013-06-27 11:45:00,
2013-06-27 06:50:00,74.5,69.3,28.35,South,172,0.0,0.0,84,0.00,,---,0.00,VWS V14.01,2013-06-27 11:50:00,
2013-06-27 06:56:00,74.7,69.9,28.35,South,172,0.0,0.0,85,0.00,,---,0.00,VWS V14.01,2013-06-27 11:56:00,
2013-06-27 07:01:00,75.0,70.2,28.35,South,172,0.0,0.0,85,0.00,,---,0.00,VWS V14.01,2013-06-27 12:01:00,
2013-06-27 07:06:00,75.2,70.4,28.35,South,172,0.0,0.0,85,0.00,,---,0.00,VWS V14.01,2013-06-27 12:06:00,
2013-06-27 07:11:00,75.6,70.7,28.35,South,172,0.0,0.0,85,0.00,,---,0.00,VWS V14.01,2013-06-27 12:11:00,
2013-06-27 07:16:00,75.9,71.1,28.35,South,172,0.0,0.0,85,0.00,,---,0.00,VWS V14.01,2013-06-27 12:16:00,
2013-06-27 07:21:00,76.3,71.8,28.35,South,172,0.0,0.0,86,0.00,,---,0.00,VWS V14.01,2013-06-27 12:21:00,
2013-06-27 07:26:00,76.6,72.1,28.35,SSE,159,0.0,0.0,86,0.00,,---,0.00,VWS V14.01,2013-06-27 12:26:00,
2013-06-27 07:31:00,77.0,72.2,28.35,SSE,163,0.0,4.0,85,0.00,,---,0.00,VWS V14.01,2013-06-27 12:31:00,
2013-06-27 07:36:00,77.5,72.7,28.35,SSE,168,0.0,4.0,85,0.00,,---,0.00,VWS V14.01,2013-06-27 12:36:00,
2013-06-27 07:42:00,78.3,73.4,28.35,SE,139,0.0,4.0,85,0.00,,---,0.00,VWS V14.01,2013-06-27 12:42:00,
2013-06-27 07:47:00,79.2,73.9,28.35,SSE,147,0.0,4.0,84,0.00,,---,0.00,VWS V14.01,2013-06-27 12:47:00,
2013-06-27 07:52:00,79.9,74.3,28.35,SSE,154,3.1,4.0,83,0.00,,---,0.00,VWS V14.01,2013-06-27 12:52:00,
2013-06-27 07:57:00,81.0,74.6,28.35,SSE,152,0.0,4.0,81,0.00,,---,0.00,VWS V14.01,2013-06-27 12:57:00,
2013-06-27 08:02:00,81.7,74.5,28.35,ESE,119,0.0,0.0,79,0.00,,---,0.00,VWS V14.01,2013-06-27 13:02:00,
2013-06-27 08:07:00,82.6,75.0,28.35,SSW,199,2.2,3.1,78,0.00,,---,0.00,VWS V14.01,2013-06-27 13:07:00,
2013-06-27 08:12:00,83.1,74.8,28.35,SSE,166,0.0,3.1,76,0.00,,---,0.00,VWS V14.01,2013-06-27 13:12:00,
2013-06-27 08:17:00,84.0,74.8,28.35,SSE,166,0.0,3.1,74,0.00,,---,0.00,VWS V14.01,2013-06-27 13:17:00,
2013-06-27 08:23:00,84.7,74.7,28.35,South,173,0.0,3.1,72,0.00,,---,0.00,VWS V14.01,2013-06-27 13:23:00,
2013-06-27 08:28:00,85.3,74.0,28.35,SE,140,0.0,3.6,69,0.00,,---,0.00,VWS V14.01,2013-06-27 13:28:00,
2013-06-27 08:33:00,85.8,73.6,28.35,SSE,151,0.0,3.6,67,0.00,,---,0.00,VWS V14.01,2013-06-27 13:33:00,
2013-06-27 08:38:00,86.4,73.2,28.35,East,93,0.0,3.6,65,0.00,,---,0.00,VWS V14.01,2013-06-27 13:38:00,
2013-06-27 08:43:00,86.9,73.3,28.35,SE,136,0.0,3.6,64,0.00,,---,0.00,VWS V14.01,2013-06-27 13:43:00,
2013-06-27 08:48:00,87.1,72.5,28.35,WSW,242,0.0,4.0,62,0.00,,---,0.00,VWS V14.01,2013-06-27 13:48:00,
2013-06-27 08:53:00,87.6,72.5,28.35,WSW,237,0.0,4.0,61,0.00,,---,0.00,VWS V14.01,2013-06-27 13:53:00,
2013-06-27 08:58:00,88.3,72.7,28.35,SSW,198,0.0,4.0,60,0.00,,---,0.00,VWS V14.01,2013-06-27 13:58:00,
2013-06-27 09:04:00,89.1,72.9,28.35,SSE,158,2.7,3.1,59,0.00,,---,0.00,VWS V14.01,2013-06-27 14:04:00,
2013-06-27 09:09:00,89.6,70.8,28.35,SSW,205,3.1,4.0,54,0.00,,---,0.00,VWS V14.01,2013-06-27 14:09:00,
2013-06-27 09:14:00,90.1,71.3,28.35,South,187,0.0,4.0,54,0.00,,---,0.00,VWS V14.01,2013-06-27 14:14:00,
2013-06-27 09:20:00,90.5,69.9,28.35,SSW,209,2.7,5.4,51,0.00,,---,0.00,VWS V14.01,2013-06-27 14:20:00,
2013-06-27 09:25:00,90.5,69.3,28.38,West,260,0.0,5.4,50,0.00,,---,0.00,VWS V14.01,2013-06-27 14:25:00,
2013-06-27 09:30:00,90.7,69.5,28.38,South,169,3.1,5.4,50,0.00,,---,0.00,VWS V14.01,2013-06-27 14:30:00,
2013-06-27 09:35:00,90.9,68.5,28.38,West,259,4.0,5.4,48,0.00,,---,0.00,VWS V14.01,2013-06-27 14:35:00,
2013-06-27 09:40:00,91.2,68.8,28.38,SE,141,3.1,5.4,48,0.00,,---,0.00,VWS V14.01,2013-06-27 14:40:00,
2013-06-27 09:45:00,91.6,68.5,28.38,West,259,2.7,5.4,47,0.00,,---,0.00,VWS V14.01,2013-06-27 14:45:00,
2013-06-27 09:50:00,91.4,68.3,28.38,SW,228,0.0,5.4,47,0.00,,---,0.00,VWS V14.01,2013-06-27 14:50:00,
2013-06-27 09:55:00,91.6,67.2,28.38,SW,231,4.0,5.4,45,0.00,,---,0.00,VWS V14.01,2013-06-27 14:55:00,
2013-06-27 10:01:00,91.4,67.1,28.38,SW,227,2.7,4.0,45,0.00,,---,0.00,VWS V14.01,2013-06-27 15:01:00,
2013-06-27 10:06:00,91.4,67.1,28.38,WSW,252,0.0,4.9,45,0.00,,---,0.00,VWS V14.01,2013-06-27 15:06:00,
2013-06-27 10:11:00,91.2,67.6,28.38,SSW,198,0.0,4.9,46,0.00,,---,0.00,VWS V14.01,2013-06-27 15:11:00,
2013-06-27 10:16:00,91.6,67.2,28.38,West,261,0.0,4.9,45,0.00,,---,0.00,VWS V14.01,2013-06-27 15:16:00,
2013-06-27 10:21:00,92.1,67.7,28.38,WSW,251,0.0,4.9,45,0.00,,---,0.00,VWS V14.01,2013-06-27 15:21:00,
2013-06-27 10:26:00,92.7,68.9,28.38,WSW,251,0.0,4.9,46,0.00,,---,0.00,VWS V14.01,2013-06-27 15:26:00,
2013-06-27 10:31:00,93.0,68.6,28.38,WSW,251,0.0,4.9,45,0.00,,---,0.00,VWS V14.01,2013-06-27 15:31:00,
2013-06-27 10:37:00,93.6,69.0,28.35,WSW,251,0.0,4.9,45,0.00,,---,0.00,VWS V14.01,2013-06-27 15:37:00,
2013-06-27 10:42:00,94.3,67.7,28.35,WSW,242,0.0,4.9,42,0.00,,---,0.00,VWS V14.01,2013-06-27 15:42:00,
2013-06-27 10:47:00,95.0,68.3,28.35,West,276,0.0,4.9,42,0.00,,---,0.00,VWS V14.01,2013-06-27 15:47:00,
2013-06-27 10:52:00,95.4,67.2,28.35,North,8,0.0,4.9,40,0.00,,---,0.00,VWS V14.01,2013-06-27 15:52:00,
2013-06-27 10:57:00,95.9,67.7,28.35,North,0,0.0,4.9,40,0.00,,---,0.00,VWS V14.01,2013-06-27 15:57:00,
2013-06-27 11:02:00,96.4,68.2,28.35,North,0,0.0,0.0,40,0.00,,---,0.00,VWS V14.01,2013-06-27 16:02:00,
2013-06-27 11:07:00,96.6,67.6,28.35,South,183,0.0,4.0,39,0.00,,---,0.00,VWS V14.01,2013-06-27 16:07:00,
2013-06-27 11:12:00,96.8,67.8,28.35,SSE,156,3.1,4.0,39,0.00,,---,0.00,VWS V14.01,2013-06-27 16:12:00,
2013-06-27 11:18:00,97.5,67.7,28.35,SE,136,0.0,4.0,38,0.00,,---,0.00,VWS V14.01,2013-06-27 16:18:00,
2013-06-27 11:23:00,97.9,68.0,28.35,North,357,0.0,4.0,38,0.00,,---,0.00,VWS V14.01,2013-06-27 16:23:00,
2013-06-27 11:28:00,98.4,68.5,28.35,SSE,154,0.0,4.0,38,0.00,,---,0.00,VWS V14.01,2013-06-27 16:28:00,
2013-06-27 11:33:00,98.6,67.1,28.35,South,180,4.0,4.9,36,0.00,,---,0.00,VWS V14.01,2013-06-27 16:33:00,
2013-06-27 11:38:00,99.0,68.2,28.35,North,3,0.0,5.4,37,0.00,,---,0.00,VWS V14.01,2013-06-27 16:38:00,
2013-06-27 11:43:00,99.3,66.9,28.35,West,261,3.1,5.4,35,0.00,,---,0.00,VWS V14.01,2013-06-27 16:43:00,
2013-06-27 11:48:00,99.3,66.9,28.35,North,2,3.6,5.4,35,0.00,,---,0.00,VWS V14.01,2013-06-27 16:48:00,
2013-06-27 11:53:00,99.3,66.9,28.35,SE,136,0.0,5.4,35,0.00,,---,0.00,VWS V14.01,2013-06-27 16:53:00,
2013-06-27 11:59:00,99.5,67.0,28.35,NNW,330,3.6,6.3,35,0.00,,---,0.00,VWS V14.01,2013-06-27 16:59:00,
2013-06-27 12:04:00,99.3,66.0,28.35,NNE,21,3.6,3.6,34,0.00,,---,0.00,VWS V14.01,2013-06-27 17:04:00,
2013-06-27 12:09:00,99.3,66.9,28.35,South,174,3.1,6.3,35,0.00,,---,0.00,VWS V14.01,2013-06-27 17:09:00,
2013-06-27 12:14:00,99.5,67.8,28.35,NNW,330,3.1,6.3,36,0.00,,---,0.00,VWS V14.01,2013-06-27 17:14:00,
2013-06-27 12:19:00,100.0,65.8,28.35,SSE,153,3.6,6.3,33,0.00,,---,0.00,VWS V14.01,2013-06-27 17:19:00,
2013-06-27 12:24:00,100.4,67.0,28.35,NE,35,0.0,6.3,34,0.00,,---,0.00,VWS V14.01,2013-06-27 17:24:00,
2013-06-27 12:29:00,100.8,67.3,28.35,SSE,167,0.0,6.3,34,0.00,,---,0.00,VWS V14.01,2013-06-27 17:29:00,
2013-06-27 12:35:00,100.9,68.3,28.35,SSW,207,5.4,6.3,35,0.00,,---,0.00,VWS V14.01,2013-06-27 17:35:00,
2013-06-27 12:40:00,101.3,66.9,28.35,ESE,119,3.6,6.3,33,0.00,,---,0.00,VWS V14.01,2013-06-27 17:40:00,
2013-06-27 12:45:00,101.8,66.5,28.35,WSW,249,3.1,8.3,32,0.00,,---,0.00,VWS V14.01,2013-06-27 17:45:00,
2013-06-27 12:50:00,102.2,66.8,28.35,NW,325,3.6,8.3,32,0.00,,---,0.00,VWS V14.01,2013-06-27 17:50:00,
2013-06-27 12:55:00,102.6,66.2,28.35,NNW,341,7.6,8.3,31,0.00,,---,0.00,VWS V14.01,2013-06-27 17:55:00,
2013-06-27 13:00:00,102.4,65.1,28.35,SE,145,3.6,3.6,30,0.00,,---,0.00,VWS V14.01,2013-06-27 18:00:00,
2013-06-27 13:05:00,102.6,65.2,28.35,ESE,116,2.7,5.8,30,0.00,,---,0.00,VWS V14.01,2013-06-27 18:05:00,
2013-06-27 13:11:00,102.9,65.5,28.32,South,171,4.0,5.8,30,0.00,,---,0.00,VWS V14.01,2013-06-27 18:11:00,
2013-06-27 13:16:00,103.3,63.9,28.32,SSW,200,3.6,5.8,28,0.00,,---,0.00,VWS V14.01,2013-06-27 18:16:00,
2013-06-27 13:21:00,103.5,65.0,28.32,SSE,167,6.3,6.3,29,0.00,,---,0.00,VWS V14.01,2013-06-27 18:21:00,
2013-06-27 13:26:00,103.6,64.2,28.32,ESE,105,2.7,7.6,28,0.00,,---,0.00,VWS V14.01,2013-06-27 18:26:00,
2013-06-27 13:31:00,103.6,63.1,28.32,SSW,207,4.9,7.6,27,0.00,,---,0.00,VWS V14.01,2013-06-27 18:31:00,
2013-06-27 13:36:00,103.5,64.0,28.32,South,170,5.8,7.6,28,0.00,,---,0.00,VWS V14.01,2013-06-27 18:36:00,
2013-06-27 13:41:00,103.6,62.1,28.32,SE,140,2.7,7.6,26,0.00,,---,0.00,VWS V14.01,2013-06-27 18:41:00,
2013-06-27 13:46:00,103.8,62.2,28.32,South,184,2.2,7.6,26,0.00,,---,0.00,VWS V14.01,2013-06-27 18:46:00,
2013-06-27 13:51:00,104.0,61.2,28.32,WNW,295,5.4,7.6,25,0.00,,---,0.00,VWS V14.01,2013-06-27 18:51:00,
2013-06-27 13:57:00,104.2,61.4,28.32,North,0,3.1,7.6,25,0.00,,---,0.00,VWS V14.01,2013-06-27 18:57:00,
2013-06-27 14:02:00,104.7,61.9,28.32,SSE,157,3.1,4.0,25,0.00,,---,0.00,VWS V14.01,2013-06-27 19:02:00,
2013-06-27 14:07:00,104.9,60.8,28.32,WSW,250,2.7,5.8,24,0.00,,---,0.00,VWS V14.01,2013-06-27 19:07:00,
2013-06-27 14:12:00,104.9,60.8,28.32,ENE,58,3.6,5.8,24,0.00,,---,0.00,VWS V14.01,2013-06-27 19:12:00,
2013-06-27 14:17:00,104.7,61.9,28.32,NNE,18,2.2,5.8,25,0.00,,---,0.00,VWS V14.01,2013-06-27 19:17:00,
2013-06-27 14:22:00,104.4,60.4,28.32,North,10,3.1,5.8,24,0.00,,---,0.00,VWS V14.01,2013-06-27 19:22:00,
2013-06-27 14:27:00,104.0,60.1,28.32,ESE,122,2.7,5.8,24,0.00,,---,0.00,VWS V14.01,2013-06-27 19:27:00,
2013-06-27 14:32:00,104.2,61.4,28.32,NNW,345,0.0,5.8,25,0.00,,---,0.00,VWS V14.01,2013-06-27 19:32:00,
2013-06-27 14:38:00,104.7,61.9,28.29,West,264,3.6,5.8,25,0.00,,---,0.00,VWS V14.01,2013-06-27 19:38:00,
2013-06-27 14:43:00,104.9,60.8,28.29,SE,144,2.7,6.3,24,0.00,,---,0.00,VWS V14.01,2013-06-27 19:43:00,
2013-06-27 14:48:00,105.1,61.0,28.29,SSE,147,0.0,6.3,24,0.00,,---,0.00,VWS V14.01,2013-06-27 19:48:00,
2013-06-27 14:53:00,105.3,61.2,28.29,SE,143,0.0,6.3,24,0.00,,---,0.00,VWS V14.01,2013-06-27 19:53:00,
2013-06-27 14:58:00,105.8,61.6,28.29,SE,138,3.6,6.3,24,0.00,,---,0.00,VWS V14.01,2013-06-27 19:58:00,
2013-06-27 15:03:00,106.3,62.0,28.29,SE,127,3.1,4.0,24,0.00,,---,0.00,VWS V14.01,2013-06-27 20:03:00,
2013-06-27 15:09:00,106.5,61.0,28.29,South,182,2.2,5.4,23,0.00,,---,0.00,VWS V14.01,2013-06-27 20:09:00,
2013-06-27 15:14:00,106.5,62.2,28.29,NW,306,3.1,5.4,24,0.00,,---,0.00,VWS V14.01,2013-06-27 20:14:00,
2013-06-27 15:19:00,106.5,62.2,28.29,South,174,3.1,5.4,24,0.00,,---,0.00,VWS V14.01,2013-06-27 20:19:00,
2013-06-27 15:24:00,106.2,60.7,28.29,SW,234,0.0,6.3,23,0.00,,---,0.00,VWS V14.01,2013-06-27 20:24:00,
2013-06-27 15:29:00,105.4,58.9,28.29,SSW,193,3.1,6.3,22,0.00,,---,0.00,VWS V14.01,2013-06-27 20:29:00,
2013-06-27 15:34:00,104.9,55.8,28.29,SW,223,0.0,8.1,20,0.00,,---,0.00,VWS V14.01,2013-06-27 20:34:00,
2013-06-27 15:39:00,104.7,57.0,28.26,South,172,4.9,8.1,21,0.00,,---,0.00,VWS V14.01,2013-06-27 20:39:00,
2013-06-27 15:45:00,104.4,58.0,28.26,SSW,206,0.0,8.1,22,0.00,,---,0.00,VWS V14.01,2013-06-27 20:45:00,
2013-06-27 15:50:00,104.2,56.5,28.26,SSW,194,4.0,8.7,21,0.00,,---,0.00,VWS V14.01,2013-06-27 20:50:00,
2013-06-27 15:55:00,104.0,55.0,28.26,SE,138,3.1,8.7,20,0.00,,---,0.00,VWS V14.01,2013-06-27 20:55:00,
2013-06-27 16:00:00,104.0,55.0,28.26,SW,229,5.8,8.7,20,0.00,,---,0.00,VWS V14.01,2013-06-27 21:00:00,
2013-06-27 16:05:00,104.2,55.2,28.26,West,263,3.1,6.3,20,0.00,,---,0.00,VWS V14.01,2013-06-27 21:05:00,
2013-06-27 16:10:00,104.4,55.3,28.26,SE,124,0.0,6.3,20,0.00,,---,0.00,VWS V14.01,2013-06-27 21:10:00,
2013-06-27 16:15:00,104.4,58.0,28.26,NE,55,4.0,6.3,22,0.00,,---,0.00,VWS V14.01,2013-06-27 21:15:00,
2013-06-27 16:21:00,103.8,57.5,28.26,ESE,108,3.1,7.6,22,0.00,,---,0.00,VWS V14.01,2013-06-27 21:21:00,
2013-06-27 16:26:00,103.1,58.2,28.23,WNW,285,0.0,7.6,23,0.00,,---,0.00,VWS V14.01,2013-06-27 21:26:00,
2013-06-27 16:32:00,102.4,57.6,28.23,SSE,160,2.2,7.6,23,0.00,,---,0.00,VWS V14.01,2013-06-27 21:32:00,
2013-06-27 16:37:00,101.8,58.3,28.26,South,182,0.0,7.6,24,0.00,,---,0.00,VWS V14.01,2013-06-27 21:37:00,
2013-06-27 16:42:00,101.1,58.8,28.26,North,1,2.7,7.6,25,0.00,,---,0.00,VWS V14.01,2013-06-27 21:42:00,
2013-06-27 16:48:00,100.4,58.2,28.26,North,353,3.1,7.6,25,0.00,,---,0.00,VWS V14.01,2013-06-27 21:48:00,
2013-06-27 16:53:00,99.7,59.8,28.23,North,353,0.0,7.6,27,0.00,,---,0.00,VWS V14.01,2013-06-27 21:53:00,
2013-06-27 16:58:00,99.0,63.1,28.23,North,0,4.9,7.6,31,0.00,,---,0.00,VWS V14.01,2013-06-27 21:58:00,
2013-06-27 17:03:00,97.9,68.0,28.23,North,0,5.4,10.1,38,0.00,,---,0.00,VWS V14.01,2013-06-27 22:03:00,
2013-06-27 17:08:00,96.6,67.6,28.26,NNE,15,5.8,10.1,39,0.00,,---,0.00,VWS V14.01,2013-06-27 22:08:00,
2013-06-27 17:13:00,95.4,66.5,28.26,West,266,5.8,11.0,39,0.00,,---,0.00,VWS V14.01,2013-06-27 22:13:00,
2013-06-27 17:18:00,93.2,63.1,28.26,SW,235,9.2,14.5,37,0.00,,---,0.00,VWS V14.01,2013-06-27 22:18:00,
2013-06-27 17:24:00,91.9,70.7,28.29,NW,313,4.0,14.5,50,0.00,,---,0.00,VWS V14.01,2013-06-27 22:24:00,
2013-06-27 17:29:00,89.8,54.2,28.29,West,280,5.4,17.9,30,0.00,,---,0.00,VWS V14.01,2013-06-27 22:29:00,
2013-06-27 17:34:00,86.9,52.7,28.29,South,176,3.6,22.4,31,0.00,,---,0.00,VWS V14.01,2013-06-27 22:34:00,
2013-06-27 17:39:00,84.6,52.3,28.32,WSW,257,7.6,22.4,33,0.00,,---,0.00,VWS V14.01,2013-06-27 22:39:00,
2013-06-27 17:45:00,83.1,52.7,28.32,WNW,291,3.6,22.4,35,0.00,,---,0.00,VWS V14.01,2013-06-27 22:45:00,
2013-06-27 17:50:00,82.2,52.6,28.32,NE,56,0.0,22.4,36,0.00,,---,0.00,VWS V14.01,2013-06-27 22:50:00,
2013-06-27 17:55:00,81.9,52.3,28.26,ESE,123,2.7,22.4,36,0.00,,---,0.00,VWS V14.01,2013-06-27 22:55:00,
2013-06-27 18:00:00,81.3,51.8,28.26,ENE,58,0.0,0.0,36,0.00,,---,0.00,VWS V14.01,2013-06-27 23:00:00,
2013-06-27 18:05:00,81.1,53.2,28.26,NNE,15,0.0,4.9,38,0.00,,---,0.00,VWS V14.01,2013-06-27 23:05:00,
2013-06-27 18:10:00,81.1,53.2,28.29,North,357,0.0,4.9,38,0.00,,---,0.00,VWS V14.01,2013-06-27 23:10:00,
2013-06-27 18:15:00,81.3,52.6,28.29,North,0,3.1,6.7,37,0.00,,---,0.00,VWS V14.01,2013-06-27 23:15:00,
2013-06-27 18:20:00,81.5,53.5,28.29,North,357,3.1,6.7,38,0.00,,---,0.00,VWS V14.01,2013-06-27 23:20:00,
2013-06-27 18:26:00,81.7,52.9,28.26,NNE,20,2.7,6.7,37,0.00,,---,0.00,VWS V14.01,2013-06-27 23:26:00,
2013-06-27 18:31:00,82.0,51.7,28.26,NW,320,0.0,6.7,35,0.00,,---,0.00,VWS V14.01,2013-06-27 23:31:00,
2013-06-27 18:36:00,82.6,51.4,28.26,North,10,0.0,6.7,34,0.00,,---,0.00,VWS V14.01,2013-06-27 23:36:00,
2013-06-27 18:42:00,83.3,51.2,28.26,South,186,0.0,6.7,33,0.00,,---,0.00,VWS V14.01,2013-06-27 23:42:00,
2013-06-27 18:47:00,84.0,61.0,28.26,West,272,0.0,6.7,46,0.00,,---,0.00,VWS V14.01,2013-06-27 23:47:00,
2013-06-27 18:52:00,84.7,68.3,28.26,SSW,209,2.7,6.7,58,0.00,,---,0.00,VWS V14.01,2013-06-27 23:52:00,
2013-06-27 18:57:00,85.1,70.2,28.26,WSW,240,2.7,6.7,61,0.00,,---,0.00,VWS V14.01,2013-06-27 23:57:00,
2013-06-27 19:02:00,85.1,62.0,28.26,SW,232,3.1,4.0,46,0.00,,---,0.00,VWS V14.01,2013-06-28 00:02:00,
2013-06-27 19:08:00,84.6,54.7,28.32,SW,232,2.2,6.3,36,0.00,,---,0.00,VWS V14.01,2013-06-28 00:08:00,
2013-06-27 19:14:00,83.8,62.1,28.32,NW,319,0.0,6.3,48,0.00,,---,0.00,VWS V14.01,2013-06-28 00:14:00,
2013-06-27 19:19:00,83.3,68.9,28.32,North,353,0.0,6.3,62,0.00,,---,0.00,VWS V14.01,2013-06-28 00:19:00,
2013-06-27 19:24:00,82.9,69.1,28.32,NNE,13,4.5,6.3,63,0.00,,---,0.00,VWS V14.01,2013-06-28 00:24:00,
2013-06-27 19:29:00,82.6,68.7,28.32,NNE,17,3.1,6.3,63,0.00,,---,0.00,VWS V14.01,2013-06-28 00:29:00,
2013-06-27 19:35:00,82.2,69.3,28.32,NNE,17,4.0,6.7,65,0.00,,---,0.00,VWS V14.01,2013-06-28 00:35:00,
2013-06-27 19:40:00,81.9,68.9,28.35,NNE,29,5.8,8.7,65,0.00,,---,0.00,VWS V14.01,2013-06-28 00:40:00,
2013-06-27 19:45:00,81.7,69.2,28.35,NNW,331,0.0,8.7,66,0.00,,---,0.00,VWS V14.01,2013-06-28 00:45:00,
2013-06-27 19:52:00,81.3,68.9,28.35,NNW,343,4.0,8.7,66,0.00,,---,0.00,VWS V14.01,2013-06-28 00:52:00,
2013-06-27 19:57:00,81.0,68.5,28.35,NNE,24,0.0,8.7,66,0.00,,---,0.00,VWS V14.01,2013-06-28 00:57:00,
2013-06-27 20:03:00,80.4,68.0,28.35,North,5,3.1,3.6,66,0.00,,---,0.00,VWS V14.01,2013-06-28 01:03:00,
2013-06-27 20:08:00,80.1,67.7,28.35,North,8,0.0,5.8,66,0.00,,---,0.00,VWS V14.01,2013-06-28 01:08:00,
2013-06-27 20:13:00,79.7,67.3,28.35,NNE,24,4.0,5.8,66,0.00,,---,0.00,VWS V14.01,2013-06-28 01:13:00,
2013-06-27 20:19:00,79.3,67.0,28.35,North,2,0.0,5.8,66,0.00,,---,0.00,VWS V14.01,2013-06-28 01:19:00,
2013-06-27 20:24:00,79.0,66.7,28.35,North,353,0.0,5.8,66,0.00,,---,0.00,VWS V14.01,2013-06-28 01:24:00,
2013-06-27 20:29:00,78.6,66.8,28.35,WNW,299,0.0,5.8,67,0.00,,---,0.00,VWS V14.01,2013-06-28 01:29:00,
2013-06-27 20:35:00,78.4,66.6,28.35,WNW,302,0.0,5.8,67,0.00,,---,0.00,VWS V14.01,2013-06-28 01:35:00,
2013-06-27 20:40:00,78.3,66.8,28.35,North,353,5.4,5.8,68,0.00,,---,0.00,VWS V14.01,2013-06-28 01:40:00,
2013-06-27 20:45:00,78.1,66.7,28.35,NNW,342,2.7,5.8,68,0.00,,---,0.00,VWS V14.01,2013-06-28 01:45:00,
2013-06-27 20:50:00,78.1,66.7,28.35,North,5,0.0,7.6,68,0.00,,---,0.00,VWS V14.01,2013-06-28 01:50:00,
2013-06-27 20:56:00,78.1,66.7,28.38,North,357,3.1,7.6,68,0.00,,---,0.00,VWS V14.01,2013-06-28 01:56:00,
2013-06-27 21:01:00,78.1,66.7,28.38,North,8,4.9,6.3,68,0.00,,---,0.00,VWS V14.01,2013-06-28 02:01:00,
2013-06-27 21:06:00,77.9,66.1,28.38,North,349,3.6,8.3,67,0.00,,---,0.00,VWS V14.01,2013-06-28 02:06:00,
2013-06-27 21:11:00,77.9,66.1,28.38,North,8,3.6,8.3,67,0.00,,---,0.00,VWS V14.01,2013-06-28 02:11:00,
2013-06-27 21:16:00,77.7,65.9,28.38,North,7,6.3,8.3,67,0.00,,---,0.00,VWS V14.01,2013-06-28 02:16:00,
2013-06-27 21:22:00,77.5,65.7,28.38,NNE,13,3.1,8.3,67,0.00,,---,0.00,VWS V14.01,2013-06-28 02:22:00,
2013-06-27 21:27:00,77.5,65.7,28.38,NNE,14,3.6,8.3,67,0.00,,---,0.00,VWS V14.01,2013-06-28 02:27:00,
2013-06-27 21:32:00,77.4,65.6,28.38,NNE,19,3.1,8.3,67,0.00,,---,0.00,VWS V14.01,2013-06-28 02:32:00,
2013-06-27 21:37:00,77.4,65.6,28.41,NNE,23,2.7,8.3,67,0.00,,---,0.00,VWS V14.01,2013-06-28 02:37:00,
2013-06-27 21:43:00,77.2,65.4,28.41,North,357,3.6,9.2,67,0.00,,---,0.00,VWS V14.01,2013-06-28 02:43:00,
2013-06-27 21:48:00,77.0,65.2,28.41,North,357,6.3,9.2,67,0.00,,---,0.00,VWS V14.01,2013-06-28 02:48:00,
2013-06-27 21:54:00,77.0,65.2,28.41,NNE,20,3.6,9.2,67,0.00,,---,0.00,VWS V14.01,2013-06-28 02:54:00,
2013-06-27 21:59:00,76.8,65.5,28.41,North,9,2.2,9.2,68,0.00,,---,0.00,VWS V14.01,2013-06-28 02:59:00,
2013-06-27 22:04:00,76.6,65.3,28.41,North,11,2.7,2.7,68,0.00,,---,0.00,VWS V14.01,2013-06-28 03:04:00,
2013-06-27 22:10:00,76.6,65.3,28.41,NNE,13,0.0,5.4,68,0.00,,---,0.00,VWS V14.01,2013-06-28 03:10:00,
2013-06-27 22:16:00,76.5,65.1,28.41,North,9,0.0,5.4,68,0.00,,---,0.00,VWS V14.01,2013-06-28 03:16:00,
2013-06-27 22:21:00,76.3,64.9,28.44,North,5,0.0,5.4,68,0.00,,---,0.00,VWS V14.01,2013-06-28 03:21:00,
2013-06-27 22:26:00,76.3,64.9,28.44,North,5,0.0,5.4,68,0.00,,---,0.00,VWS V14.01,2013-06-28 03:26:00,
2013-06-27 22:31:00,76.1,64.8,28.44,WSW,256,4.0,5.4,68,0.00,,---,0.00,VWS V14.01,2013-06-28 03:31:00,
2013-06-27 22:36:00,76.1,64.8,28.44,WSW,249,0.0,5.4,68,0.00,,---,0.00,VWS V14.01,2013-06-28 03:36:00,
2013-06-27 22:41:00,76.1,65.2,28.44,WSW,250,0.0,5.4,69,0.00,,---,0.00,VWS V14.01,2013-06-28 03:41:00,
2013-06-27 22:47:00,75.9,65.4,28.44,WSW,250,0.0,5.4,70,0.00,,---,0.00,VWS V14.01,2013-06-28 03:47:00,
2013-06-27 22:52:00,75.9,65.4,28.44,WSW,250,0.0,5.4,70,0.00,,---,0.00,VWS V14.01,2013-06-28 03:52:00,
2013-06-27 22:57:00,75.7,65.3,28.44,WSW,257,4.0,5.4,70,0.00,,---,0.00,VWS V14.01,2013-06-28 03:57:00,
2013-06-27 23:01:00,75.6,65.1,28.44,WSW,257,0.0,0.0,70,0.00,,---,0.00,VWS V14.01,2013-06-28 04:01:00,
2013-06-27 23:02:00,75.6,65.1,28.44,WSW,257,0.0,0.0,70,0.00,,---,0.00,VWS V14.01,2013-06-28 04:02:00,
2013-06-27 23:08:00,75.4,64.9,28.44,West,264,5.4,5.4,70,0.00,,---,0.00,VWS V14.01,2013-06-28 04:08:00,
2013-06-27 23:13:00,75.4,65.3,28.44,West,265,0.0,5.8,71,0.00,,---,0.00,VWS V14.01,2013-06-28 04:13:00,
2013-06-27 23:18:00,75.4,65.3,28.44,WSW,247,0.0,5.8,71,0.00,,---,0.00,VWS V14.01,2013-06-28 04:18:00,
2013-06-27 23:23:00,75.2,65.2,28.44,SW,233,2.2,5.8,71,0.00,,---,0.00,VWS V14.01,2013-06-28 04:23:00,
2013-06-27 23:28:00,74.8,64.8,28.44,WSW,243,2.7,5.8,71,0.00,,---,0.00,VWS V14.01,2013-06-28 04:28:00,
2013-06-27 23:33:00,74.7,65.0,28.44,SW,234,2.2,5.8,72,0.00,,---,0.00,VWS V14.01,2013-06-28 04:33:00,
2013-06-27 23:38:00,74.5,65.3,28.44,West,259,2.7,6.3,73,0.00,,---,0.00,VWS V14.01,2013-06-28 04:38:00,
2013-06-27 23:43:00,74.3,65.1,28.44,West,259,0.0,6.3,73,0.00,,---,0.00,VWS V14.01,2013-06-28 04:43:00,
2013-06-27 23:48:00,74.1,64.9,28.44,West,275,0.0,6.3,73,0.00,,---,0.00,VWS V14.01,2013-06-28 04:48:00,
2013-06-27 23:53:00,73.9,64.8,28.44,WSW,257,2.7,6.3,73,0.00,,---,0.00,VWS V14.01,2013-06-28 04:53:00,
2013-06-27 23:59:00,73.9,64.8,28.44,WSW,258,0.0,6.3,73,0.00,,---,0.00,VWS V14.01,2013-06-28 04:59:00,